Location: Downe
(51.3167°N, 0.0500°E)
Time: 14:20:28
(UTC+00:00)

Cosmos 1605 Rocket - Pass Details

Date: 17 November 2019
Orbit: 944 x 1006 km, 82.9° (Epoch: 06 December)

Event Time Altitude Azimuth Distance (km) Brightness Sun altitude
Exits shadow 05:21:55 20° 238° (WSW) 2,071 5.3 -18.2°
Maximum altitude 05:25:30 36° 291° (WNW) 1,485 4.4 -17.6°
Drops below altitude 10° 05:31:05 10° 357° (N) 2,686 6.2 -16.7°
Sets 05:33:49 0° 6° (N) 3,630 7.0 -16.3°
